Notices

What's New in latest Release from April 7th, 2021:

- Updated Glossary, including Speed of Maximum Gust, and Total Hourly Precipitation

- Updated national and regional climate services offices contacts and prices information

- Addition of station inventory lists for 1981-2010, 1971-2000, and 1961-1990 Normals.

If you haven't already, please take our survey and provide feedback about our website: https://eccc.sondage-survey.ca/f/LanguageSelection.aspx?s=442ca660-fcf1-47c0-95a9-59707d6fd709

Hourly Data Report for January 16, 2021

SHEARWATER RCS
NOVA SCOTIA
Current Station Operator: ECCC - MSC

44°37'47.000" N
63°30'48.000" W
24.00 m
8205092
71264
AAW

Download Data

Hourly Data (January 2021)
Hourly Data Report for January 16, 2021
TIME
LST
Temp Definition
°C
Dew Point Definition
°C
Rel Hum Definition
%
Precip. Amount Definition
mm

Wind Dir Definition
10's deg

Wind Spd Definition
km/h
Visibility Definition
km
Stn Press Definition
kPa
Hmdx Definition


Wind Chill Definition


Weather Definition


00:00 -3.1 -4.6 90 0.0 32 7   101.82   -6 LegendNANA
01:00 -3.7 -4.9 91 0.0 31 5   101.88   -6 LegendNANA
02:00 -3.2 -4.5 90 0.0 33 9   101.88   -7 LegendNANA
03:00 -3.3 -4.7 90 0.0 33 8   101.91   -7 LegendNANA
04:00 -4.0 -5.2 91 0.0 33 9   101.88   -8 LegendNANA
05:00 -3.6 -5.1 89 0.0 34 11   101.89   -8 LegendNANA
06:00 -3.2 -5.1 86 0.0 1 8   101.84   -6 LegendNANA
07:00 -3.2 -5.3 85 0.0 4 8   101.78   -6 LegendNANA
08:00 -3.6 -5.4 88 0.0 35 1   101.91   -4 LegendNANA
09:00 -2.4 -4.6 85 0.0 6 5   101.81   -4 LegendNANA
10:00 -1.7 -3.8 85 0.0 6 10   101.79   -5 LegendNANA
11:00 -0.2 -2.8 83 0.0 8 12   101.70   -4 LegendNANA
12:00 0.5 -3.0 77 0.0 12 13   101.55     LegendNANA
13:00 1.1 -2.7 76 0.0 11 15   101.37     LegendNANA
14:00 1.3 -2.1 78 0.0 10 16   101.27     LegendNANA
15:00 2.2 -1.3 77 0.0 12 15   101.28     LegendNANA
16:00 2.4 -0.8 80 0.0 12 19   101.16     LegendNANA
17:00 2.5 -0.3 82 0.0 10 19   101.01     LegendNANA
18:00 2.8 0.0 82 0.0 10 24   100.80     LegendNANA
19:00 2.9 0.9 86 0.0 8 30   100.50     LegendNANA
20:00 3.0 1.5 90 0.0 10 22   100.44     LegendNANA
21:00 3.0 1.9 93 0.7 9 34   100.05     LegendNANA
22:00 3.4 2.6 94 1.9 9 35   99.71     LegendNANA
23:00 3.9 3.0 94 1.4 9 33   99.51     LegendNANA

Notes on Data Quality.

Legend

  • E = Estimated
  • M = Missing
  • NA = Not Available*
  • [empty] = Indicates an unobserved value
Date modified: